Location: Newark
(35.6799°N, 139.7636°E)
Time: 06:20:47
(UTC+00:00)

Explorer 7 - Pass Details

Date: 16 December 2019
Orbit: 485 x 679 km, 50.3° (Epoch: 19 January)

Event Time Altitude Azimuth Distance (km) Brightness Sun altitude
Rises 03:55:54 0° 232° (SW) 2,865 11.3 28.1°
Reaches altitude 10° 03:58:09 10° 233° (SW) 1,993 10.7 27.9°
Maximum altitude 04:02:46 80° 321° (NW) 663 7.6 27.6°
Drops below altitude 10° 04:07:37 10° 49° (NE) 2,093 9.4 27.2°
Sets 04:10:02 0° 50° (NE) 3,023 10.1 27.0°
